Location: Peebles
(55.6412°N, 3.1714°W)
Time: 09:12:07
(UTC+01:00)

deb NNS O-4 - Visible Passes

Search period start: 26 June 2022 00:00
Search period end: 06 July 2022 00:00
Orbit: 979 x 1072 km, 89.9° (Epoch: 25 June)

Date Brightness Start Highest point End Pass type
(mag) Time Alt. Az. Time Alt. Az. Time Alt. Az.
26 Jun ? 00:57:01 10° E 01:01:11 18° ENE 01:05:19 10° NNE visible
26 Jun ? 02:38:55 10° SSE 02:45:30 66° E 02:52:07 10° N visible
27 Jun ? 01:35:01 10° SE 01:40:40 30° ENE 01:46:18 10° NNE visible
27 Jun ? 03:19:01 10° S 03:25:41 72° W 03:32:22 10° N visible
28 Jun ? 00:33:09 10° E 00:36:22 14° ENE 00:39:35 10° NNE visible
28 Jun ? 02:14:01 10° SSE 02:20:27 53° E 02:26:52 10° N visible
29 Jun ? 01:10:36 10° ESE 01:15:45 25° ENE 01:20:54 10° NNE visible
29 Jun ? 02:53:49 10° S 03:00:31 89° W 03:07:12 10° N visible
30 Jun ? 00:09:53 10° ENE 00:11:37 11° NE 00:13:20 10° NE visible
30 Jun ? 01:49:14 10° SE 01:55:26 42° ENE 02:01:35 10° N visible
01 Jul ? 00:46:21 10° ESE 00:50:53 20° ENE 00:55:24 10° NNE visible
01 Jul ? 02:28:44 10° SSE 02:35:23 75° E 02:42:00 10° N visible
02 Jul ? 01:24:35 10° SE 01:30:26 34° ENE 01:36:14 10° N visible
02 Jul ? 03:09:01 10° SSW 03:15:37 64° W 03:22:12 10° N visible
03 Jul ? 00:22:19 10° E 00:26:03 16° ENE 00:29:45 10° NNE visible
03 Jul ? 02:03:46 10° SSE 02:10:17 60° E 02:16:45 10° N visible
04 Jul ? 01:00:05 10° ESE 01:05:30 28° ENE 01:10:52 10° NNE visible
04 Jul ? 02:43:44 10° S 02:50:24 79° W 02:57:02 10° N visible
04 Jul ? 23:58:40 10° ENE 00:01:15 13° NE 00:03:50 10° NNE visible
05 Jul ? 01:38:55 10° SSE 01:45:14 48° ENE 01:51:29 10° N visible
05 Jul ? 03:24:30 10° SSW 03:30:50 45° W 03:37:07 10° N visible
